Location: Arroyo de San Miguel
(40.9167°N, 4.6667°W)
Time: 01:32:00
(UTC+00:00)

USA 59 Rocket - Pass Details

Date: 19 May 2025
Orbit: 373 x 1695 km, 63.3° (Epoch: 24 June)

Event Time Altitude Azimuth Distance (km) Brightness Sun altitude
Exits shadow 23:57:19 14° 332° (NNW) 1,250 2.4 -29.0°
Drops below altitude 10° 23:58:19 10° 351° (N) 1,420 2.9 -29.0°
Sets 00:00:54 0° 18° (NNE) 2,241 4.0 -29.0°
